Year,Month,Day,Hour,Minute,Value (Times are PST for temperature in C)
2022,04,15,00,00,4.40
2022,04,15,00,01,4.40
2022,04,15,00,02,4.30
2022,04,15,00,03,4.30
2022,04,15,00,04,4.30
2022,04,15,00,05,4.30
2022,04,15,00,06,4.30
2022,04,15,00,07,4.30
2022,04,15,00,08,4.30
2022,04,15,00,09,4.30
2022,04,15,00,10,4.30
2022,04,15,00,11,4.30
2022,04,15,00,12,4.30
2022,04,15,00,13,4.30
2022,04,15,00,14,4.30
2022,04,15,00,15,4.30
2022,04,15,00,16,4.30
2022,04,15,00,17,4.30
2022,04,15,00,18,4.30
2022,04,15,00,19,4.30
2022,04,15,00,20,4.30
2022,04,15,00,21,4.30
2022,04,15,00,22,4.30
2022,04,15,00,23,4.30
2022,04,15,00,24,4.30
2022,04,15,00,25,4.30
2022,04,15,00,26,4.30
2022,04,15,00,27,4.30
2022,04,15,00,28,4.30
2022,04,15,00,29,4.30
2022,04,15,00,30,4.30
2022,04,15,00,31,4.30
2022,04,15,00,32,4.30
2022,04,15,00,33,4.30
2022,04,15,00,34,4.30
2022,04,15,00,35,4.30
2022,04,15,00,36,4.30
2022,04,15,00,37,4.30
2022,04,15,00,38,4.30
2022,04,15,00,39,4.30
2022,04,15,00,40,4.30
2022,04,15,00,41,4.30
2022,04,15,00,42,4.30
2022,04,15,00,43,4.30
2022,04,15,00,44,4.30
2022,04,15,00,45,4.20
2022,04,15,00,46,4.20
2022,04,15,00,47,4.20
2022,04,15,00,48,4.20
2022,04,15,00,49,4.20
2022,04,15,00,50,4.20
2022,04,15,00,51,4.30
2022,04,15,00,52,4.30
2022,04,15,00,53,4.30
2022,04,15,00,54,4.30
2022,04,15,00,55,4.30
2022,04,15,00,56,4.30
2022,04,15,00,57,4.30
2022,04,15,00,58,4.30
2022,04,15,00,59,4.30
2022,04,15,01,00,4.30
2022,04,15,01,01,4.30
2022,04,15,01,02,4.30
2022,04,15,01,03,4.30
2022,04,15,01,04,4.20
2022,04,15,01,05,4.20
2022,04,15,01,06,4.20
2022,04,15,01,07,4.20
2022,04,15,01,08,4.20
2022,04,15,01,09,4.20
2022,04,15,01,10,4.20
2022,04,15,01,11,4.20
2022,04,15,01,12,4.20
2022,04,15,01,13,4.10
2022,04,15,01,14,4.10
2022,04,15,01,15,4.10
2022,04,15,01,16,4.10
2022,04,15,01,17,4.10
2022,04,15,01,18,4.10
2022,04,15,01,19,4.00
2022,04,15,01,20,4.00
2022,04,15,01,21,4.00
2022,04,15,01,22,4.00
2022,04,15,01,23,4.00
2022,04,15,01,24,4.00
2022,04,15,01,25,3.90
2022,04,15,01,26,3.90
2022,04,15,01,27,3.90
2022,04,15,01,28,3.90
2022,04,15,01,29,3.90
2022,04,15,01,30,3.90
2022,04,15,01,31,3.90
2022,04,15,01,32,3.90
2022,04,15,01,33,3.90
2022,04,15,01,34,3.80
2022,04,15,01,35,3.80
2022,04,15,01,36,3.80
2022,04,15,01,37,3.80
2022,04,15,01,38,3.80
2022,04,15,01,39,3.80
2022,04,15,01,40,3.80
2022,04,15,01,41,3.80
2022,04,15,01,42,3.70
2022,04,15,01,43,3.70
2022,04,15,01,44,3.70
2022,04,15,01,45,3.70
2022,04,15,01,46,3.70
2022,04,15,01,47,3.60
2022,04,15,01,48,3.60
2022,04,15,01,49,3.60
2022,04,15,01,50,3.60
2022,04,15,01,51,3.50
2022,04,15,01,52,3.50
2022,04,15,01,53,3.50
2022,04,15,01,54,3.50
2022,04,15,01,55,3.40
2022,04,15,01,56,3.40
2022,04,15,01,57,3.40
2022,04,15,01,58,3.40
2022,04,15,01,59,3.30
2022,04,15,02,00,3.30
2022,04,15,02,01,3.30
2022,04,15,02,02,3.30
2022,04,15,02,03,3.30
2022,04,15,02,04,3.20
2022,04,15,02,05,3.20
2022,04,15,02,06,3.20
2022,04,15,02,07,3.20
2022,04,15,02,08,3.20
2022,04,15,02,09,3.20
2022,04,15,02,10,3.20
2022,04,15,02,11,3.20
2022,04,15,02,12,3.20
2022,04,15,02,13,3.20
2022,04,15,02,14,3.10
2022,04,15,02,15,3.10
2022,04,15,02,16,3.10
2022,04,15,02,17,3.10
2022,04,15,02,18,3.10
2022,04,15,02,19,3.10
2022,04,15,02,20,3.00
2022,04,15,02,21,3.00
2022,04,15,02,22,3.00
2022,04,15,02,23,3.00
2022,04,15,02,24,2.90
2022,04,15,02,25,2.90
2022,04,15,02,26,2.90
2022,04,15,02,27,2.90
2022,04,15,02,28,2.90
2022,04,15,02,29,2.80
2022,04,15,02,30,2.80
2022,04,15,02,31,2.80
2022,04,15,02,32,2.70
2022,04,15,02,33,2.70
2022,04,15,02,34,2.70
2022,04,15,02,35,2.60
2022,04,15,02,36,2.60
2022,04,15,02,37,2.60
2022,04,15,02,38,2.60
2022,04,15,02,39,2.60
2022,04,15,02,40,2.60
2022,04,15,02,41,2.60
2022,04,15,02,42,2.50
2022,04,15,02,43,2.50
2022,04,15,02,44,2.50
2022,04,15,02,45,2.50
2022,04,15,02,46,2.50
2022,04,15,02,47,2.50
2022,04,15,02,48,2.50
2022,04,15,02,49,2.40
2022,04,15,02,50,2.40
2022,04,15,02,51,2.40
2022,04,15,02,52,2.40
2022,04,15,02,53,2.40
2022,04,15,02,54,2.40
2022,04,15,02,55,2.40
2022,04,15,02,56,2.40
2022,04,15,02,57,2.40
2022,04,15,02,58,2.30
2022,04,15,02,59,2.30
2022,04,15,03,00,2.30
2022,04,15,03,01,2.30
2022,04,15,03,02,2.30
2022,04,15,03,03,2.30
2022,04,15,03,04,2.30
2022,04,15,03,05,2.30
2022,04,15,03,06,2.30
2022,04,15,03,07,2.30
2022,04,15,03,08,2.30
2022,04,15,03,09,2.30
2022,04,15,03,10,2.30
2022,04,15,03,11,2.30
2022,04,15,03,12,2.30
2022,04,15,03,13,2.30
2022,04,15,03,14,2.40
2022,04,15,03,15,2.40
2022,04,15,03,16,2.40
2022,04,15,03,17,2.40
2022,04,15,03,18,2.40
2022,04,15,03,19,2.40
2022,04,15,03,20,2.40
2022,04,15,03,21,2.40
2022,04,15,03,22,2.40
2022,04,15,03,23,2.30
2022,04,15,03,24,2.30
2022,04,15,03,25,2.30
2022,04,15,03,26,2.30
2022,04,15,03,27,2.30
2022,04,15,03,28,2.30
2022,04,15,03,29,2.30
2022,04,15,03,30,2.30
2022,04,15,03,31,2.30
2022,04,15,03,32,2.30
2022,04,15,03,33,2.30
2022,04,15,03,34,2.30
2022,04,15,03,35,2.30
2022,04,15,03,36,2.30
2022,04,15,03,37,2.30
2022,04,15,03,38,2.30
2022,04,15,03,39,2.30
2022,04,15,03,40,2.30
2022,04,15,03,41,2.30
2022,04,15,03,42,2.30
2022,04,15,03,43,2.30
2022,04,15,03,44,2.30
2022,04,15,03,45,2.30
2022,04,15,03,46,2.30
2022,04,15,03,47,2.30
2022,04,15,03,48,2.30
2022,04,15,03,49,2.30
2022,04,15,03,50,2.30
2022,04,15,03,51,2.30
2022,04,15,03,52,2.30
2022,04,15,03,53,2.30
2022,04,15,03,54,2.30
2022,04,15,03,55,2.30
2022,04,15,03,56,2.30
2022,04,15,03,57,2.30
2022,04,15,03,58,2.30
2022,04,15,03,59,2.30
2022,04,15,04,00,2.30
2022,04,15,04,01,2.30
2022,04,15,04,02,2.30
2022,04,15,04,03,2.30
2022,04,15,04,04,2.30
2022,04,15,04,05,2.30
2022,04,15,04,06,2.30
2022,04,15,04,07,2.30
2022,04,15,04,08,2.30
2022,04,15,04,09,2.30
2022,04,15,04,10,2.30
2022,04,15,04,11,2.20
2022,04,15,04,12,2.20
2022,04,15,04,13,2.20
2022,04,15,04,14,2.20
2022,04,15,04,15,2.20
2022,04,15,04,16,2.20
2022,04,15,04,17,2.20
2022,04,15,04,18,2.20
2022,04,15,04,19,2.20
2022,04,15,04,20,2.10
2022,04,15,04,21,2.10
2022,04,15,04,22,2.10
2022,04,15,04,23,2.10
2022,04,15,04,24,2.10
2022,04,15,04,25,2.10
2022,04,15,04,26,2.10
2022,04,15,04,27,2.00
2022,04,15,04,28,2.00
2022,04,15,04,29,2.00
2022,04,15,04,30,2.00
2022,04,15,04,31,2.00
2022,04,15,04,32,2.00
2022,04,15,04,33,2.00
2022,04,15,04,34,2.00
2022,04,15,04,35,2.00
2022,04,15,04,36,2.00
2022,04,15,04,37,2.00
2022,04,15,04,38,2.00
2022,04,15,04,39,2.00
2022,04,15,04,40,2.00
2022,04,15,04,41,2.00
2022,04,15,04,42,2.00
2022,04,15,04,43,2.00
2022,04,15,04,44,2.00
2022,04,15,04,45,2.00
2022,04,15,04,46,2.00
2022,04,15,04,47,2.00
2022,04,15,04,48,2.00
2022,04,15,04,49,2.00
2022,04,15,04,50,2.00
2022,04,15,04,51,1.90
2022,04,15,04,52,1.90
2022,04,15,04,53,1.90
2022,04,15,04,54,1.90
2022,04,15,04,55,1.90
2022,04,15,04,56,1.90
2022,04,15,04,57,1.90
2022,04,15,04,58,1.90
2022,04,15,04,59,1.90
2022,04,15,05,00,1.90
2022,04,15,05,01,1.90
2022,04,15,05,02,1.80
2022,04,15,05,03,1.80
2022,04,15,05,04,1.80
2022,04,15,05,05,1.80
2022,04,15,05,06,1.80
2022,04,15,05,07,1.80
2022,04,15,05,08,1.80
2022,04,15,05,09,1.80
2022,04,15,05,10,1.80
2022,04,15,05,11,1.80
2022,04,15,05,12,1.80
2022,04,15,05,13,1.80
2022,04,15,05,14,1.80
2022,04,15,05,15,1.70
2022,04,15,05,16,1.70
2022,04,15,05,17,1.70
2022,04,15,05,18,1.70
2022,04,15,05,19,1.70
2022,04,15,05,20,1.70
2022,04,15,05,21,1.70
2022,04,15,05,22,1.70
2022,04,15,05,23,1.70
2022,04,15,05,24,1.70
2022,04,15,05,25,1.70
2022,04,15,05,26,1.60
2022,04,15,05,27,1.60
2022,04,15,05,28,1.60
2022,04,15,05,29,1.60
2022,04,15,05,30,1.60
2022,04,15,05,31,1.60
2022,04,15,05,32,1.60
2022,04,15,05,33,1.60
2022,04,15,05,34,1.60
2022,04,15,05,35,1.60
2022,04,15,05,36,1.60
2022,04,15,05,37,1.60
2022,04,15,05,38,1.60
2022,04,15,05,39,1.60
2022,04,15,05,40,1.60
2022,04,15,05,41,1.60
2022,04,15,05,42,1.60
2022,04,15,05,43,1.60
2022,04,15,05,44,1.60
2022,04,15,05,45,1.60
2022,04,15,05,46,1.60
2022,04,15,05,47,1.60
2022,04,15,05,48,1.60
2022,04,15,05,49,1.60
2022,04,15,05,50,1.60
2022,04,15,05,51,1.60
2022,04,15,05,52,1.60
2022,04,15,05,53,1.60
2022,04,15,05,54,1.60
2022,04,15,05,55,1.60
2022,04,15,05,56,1.60
2022,04,15,05,57,1.60
2022,04,15,05,58,1.50
2022,04,15,05,59,1.50
2022,04,15,06,00,1.50
2022,04,15,06,01,1.50
2022,04,15,06,02,1.50
2022,04,15,06,03,1.40
2022,04,15,06,04,1.40
2022,04,15,06,05,1.40
2022,04,15,06,06,1.40
2022,04,15,06,07,1.40
2022,04,15,06,08,1.40
2022,04,15,06,09,1.40
2022,04,15,06,10,1.40
2022,04,15,06,11,1.40
2022,04,15,06,12,1.40
2022,04,15,06,13,1.40
2022,04,15,06,14,1.40
2022,04,15,06,15,1.30
2022,04,15,06,16,1.30
2022,04,15,06,17,1.30
2022,04,15,06,18,1.30
2022,04,15,06,19,1.30
2022,04,15,06,20,1.30
2022,04,15,06,21,1.30
2022,04,15,06,22,1.30
2022,04,15,06,23,1.30
2022,04,15,06,24,1.20
2022,04,15,06,25,1.20
2022,04,15,06,26,1.20
2022,04,15,06,27,1.20
2022,04,15,06,28,1.20
2022,04,15,06,29,1.20
2022,04,15,06,30,1.20
2022,04,15,06,31,1.20
2022,04,15,06,32,1.20
2022,04,15,06,33,1.20
2022,04,15,06,34,1.20
2022,04,15,06,35,1.20
2022,04,15,06,36,1.20
2022,04,15,06,37,1.20
2022,04,15,06,38,1.20
2022,04,15,06,39,1.20
2022,04,15,06,40,1.20
2022,04,15,06,41,1.20
2022,04,15,06,42,1.20
2022,04,15,06,43,1.10
2022,04,15,06,44,1.10
2022,04,15,06,45,1.10
2022,04,15,06,46,1.10
2022,04,15,06,47,1.10
2022,04,15,06,48,1.00
2022,04,15,06,49,1.00
2022,04,15,06,50,1.00
2022,04,15,06,51,0.90
2022,04,15,06,52,0.90
2022,04,15,06,53,0.90
2022,04,15,06,54,0.90
2022,04,15,06,55,0.90
2022,04,15,06,56,0.90
2022,04,15,06,57,0.90
2022,04,15,06,58,0.90
2022,04,15,06,59,0.90
2022,04,15,07,00,0.90
2022,04,15,07,01,0.90
2022,04,15,07,02,0.80
2022,04,15,07,03,0.80
2022,04,15,07,04,0.80
2022,04,15,07,05,0.80
2022,04,15,07,06,0.80
2022,04,15,07,07,0.80
2022,04,15,07,08,0.80
2022,04,15,07,09,0.80
2022,04,15,07,10,0.80
2022,04,15,07,11,0.80
2022,04,15,07,12,0.80
2022,04,15,07,13,0.80
2022,04,15,07,14,0.80
2022,04,15,07,15,0.80
2022,04,15,07,16,0.80
2022,04,15,07,17,0.80
2022,04,15,07,18,0.80
2022,04,15,07,19,0.80
2022,04,15,07,20,0.80
2022,04,15,07,21,0.80
2022,04,15,07,22,0.80
2022,04,15,07,23,0.80
2022,04,15,07,24,0.80
2022,04,15,07,25,0.80
2022,04,15,07,26,0.80
2022,04,15,07,27,0.80
2022,04,15,07,28,0.80
2022,04,15,07,29,0.80
2022,04,15,07,30,0.90
2022,04,15,07,31,0.90
2022,04,15,07,32,0.90
2022,04,15,07,33,0.90
2022,04,15,07,34,0.90
2022,04,15,07,35,0.90
2022,04,15,07,36,1.00
2022,04,15,07,37,1.00
2022,04,15,07,38,1.00
2022,04,15,07,39,1.10
2022,04,15,07,40,1.10
2022,04,15,07,41,1.10
2022,04,15,07,42,1.20
2022,04,15,07,43,1.20
2022,04,15,07,44,1.20
2022,04,15,07,45,1.20
2022,04,15,07,46,1.30
2022,04,15,07,47,1.30
2022,04,15,07,48,1.30
2022,04,15,07,49,1.30
2022,04,15,07,50,1.30
2022,04,15,07,51,1.40
2022,04,15,07,52,1.40
2022,04,15,07,53,1.40
2022,04,15,07,54,1.40
2022,04,15,07,55,1.50
2022,04,15,07,56,1.50
2022,04,15,07,57,1.60
2022,04,15,07,58,1.60
2022,04,15,07,59,1.60
2022,04,15,08,00,1.70
2022,04,15,08,01,1.70
2022,04,15,08,02,1.70
2022,04,15,08,03,1.70
2022,04,15,08,04,1.80
2022,04,15,08,05,1.80
2022,04,15,08,06,1.80
2022,04,15,08,07,1.90
2022,04,15,08,08,1.90
2022,04,15,08,09,1.90
2022,04,15,08,10,1.90
2022,04,15,08,11,2.00
2022,04,15,08,12,2.00
2022,04,15,08,13,2.00
2022,04,15,08,14,2.10
2022,04,15,08,15,2.10
2022,04,15,08,16,2.20
2022,04,15,08,17,2.20
2022,04,15,08,18,2.20
2022,04,15,08,19,2.30
2022,04,15,08,20,2.30
2022,04,15,08,21,2.40
2022,04,15,08,22,2.50
2022,04,15,08,23,2.50
2022,04,15,08,24,2.60
2022,04,15,08,25,2.60
2022,04,15,08,26,2.70
2022,04,15,08,27,2.80
2022,04,15,08,28,2.80
2022,04,15,08,29,2.90
2022,04,15,08,30,2.90
2022,04,15,08,31,3.00
2022,04,15,08,32,3.00
2022,04,15,08,33,3.10
2022,04,15,08,34,3.20
2022,04,15,08,35,3.20
2022,04,15,08,36,3.30
2022,04,15,08,37,3.30
2022,04,15,08,38,3.40
2022,04,15,08,39,3.40
2022,04,15,08,40,3.50
2022,04,15,08,41,3.50
2022,04,15,08,42,3.60
2022,04,15,08,43,3.70
2022,04,15,08,44,3.70
2022,04,15,08,45,3.70
2022,04,15,08,46,3.80
2022,04,15,08,47,3.80
2022,04,15,08,48,3.80
2022,04,15,08,49,3.90
2022,04,15,08,50,3.90
2022,04,15,08,51,4.00
2022,04,15,08,52,4.00
2022,04,15,08,53,4.10
2022,04,15,08,54,4.10
2022,04,15,08,55,4.20
2022,04,15,08,56,4.20
2022,04,15,08,57,4.30
2022,04,15,08,58,4.30
2022,04,15,08,59,4.40
2022,04,15,09,00,4.50
2022,04,15,09,01,4.50
2022,04,15,09,02,4.60
2022,04,15,09,03,4.70
2022,04,15,09,04,4.70
2022,04,15,09,05,4.70
2022,04,15,09,06,4.80
2022,04,15,09,07,4.80
2022,04,15,09,08,4.90
2022,04,15,09,09,4.90
2022,04,15,09,10,4.90
2022,04,15,09,11,4.90
2022,04,15,09,12,5.00
2022,04,15,09,13,5.00
2022,04,15,09,14,5.10
2022,04,15,09,15,5.10
2022,04,15,09,16,5.10
2022,04,15,09,17,5.20
2022,04,15,09,18,5.20
2022,04,15,09,19,5.20
2022,04,15,09,20,5.30
2022,04,15,09,21,5.30
2022,04,15,09,22,5.30
2022,04,15,09,23,5.40
2022,04,15,09,24,5.40
2022,04,15,09,25,5.40
2022,04,15,09,26,5.50
2022,04,15,09,27,5.50
2022,04,15,09,28,5.60
2022,04,15,09,29,5.60
2022,04,15,09,30,5.60
2022,04,15,09,31,5.70
2022,04,15,09,32,5.70
2022,04,15,09,33,5.70
2022,04,15,09,34,5.80
2022,04,15,09,35,5.80
2022,04,15,09,36,5.80
2022,04,15,09,37,5.80
2022,04,15,09,38,5.80
2022,04,15,09,39,5.90
2022,04,15,09,40,5.90
2022,04,15,09,41,5.90
2022,04,15,09,42,6.00
2022,04,15,09,43,6.00
2022,04,15,09,44,6.00
2022,04,15,09,45,6.10
2022,04,15,09,46,6.10
2022,04,15,09,47,6.10
2022,04,15,09,48,6.10
2022,04,15,09,49,6.10
2022,04,15,09,50,6.10
2022,04,15,09,51,6.10
2022,04,15,09,52,6.10
2022,04,15,09,53,6.10
2022,04,15,09,54,6.20
2022,04,15,09,55,6.20
2022,04,15,09,56,6.30
2022,04,15,09,57,6.30
2022,04,15,09,58,6.30
2022,04,15,09,59,6.40
2022,04,15,10,00,6.40
2022,04,15,10,01,6.50
2022,04,15,10,02,6.50
2022,04,15,10,03,6.60
2022,04,15,10,04,6.60
2022,04,15,10,05,6.60
2022,04,15,10,06,6.70
2022,04,15,10,07,6.70
2022,04,15,10,08,6.80
2022,04,15,10,09,6.80
2022,04,15,10,10,6.80
2022,04,15,10,11,6.80
2022,04,15,10,12,6.80
2022,04,15,10,13,6.80
2022,04,15,10,14,6.80
2022,04,15,10,15,6.80
2022,04,15,10,16,6.80
2022,04,15,10,17,6.80
2022,04,15,10,18,6.80
2022,04,15,10,19,6.80
2022,04,15,10,20,6.80
2022,04,15,10,21,6.80
2022,04,15,10,22,6.80
2022,04,15,10,23,6.80
2022,04,15,10,24,6.80
2022,04,15,10,25,6.70
2022,04,15,10,26,6.70
2022,04,15,10,27,6.70
2022,04,15,10,28,6.80
2022,04,15,10,29,6.80
2022,04,15,10,30,6.80
2022,04,15,10,31,6.90
2022,04,15,10,32,6.90
2022,04,15,10,33,7.00
2022,04,15,10,34,7.10
2022,04,15,10,35,7.20
2022,04,15,10,36,7.20
2022,04,15,10,37,7.20
2022,04,15,10,38,7.20
2022,04,15,10,39,7.20
2022,04,15,10,40,7.20
2022,04,15,10,41,7.20
2022,04,15,10,42,7.20
2022,04,15,10,43,7.20
2022,04,15,10,44,7.20
2022,04,15,10,45,7.10
2022,04,15,10,46,7.10
2022,04,15,10,47,7.20
2022,04,15,10,48,7.30
2022,04,15,10,49,7.30
2022,04,15,10,50,7.30
2022,04,15,10,51,7.30
2022,04,15,10,52,7.30
2022,04,15,10,53,7.30
2022,04,15,10,54,7.30
2022,04,15,10,55,7.30
2022,04,15,10,56,7.20
2022,04,15,10,57,7.20
2022,04,15,10,58,7.20
2022,04,15,10,59,7.30
2022,04,15,11,00,7.40
2022,04,15,11,01,7.50
2022,04,15,11,02,7.50
2022,04,15,11,03,7.60
2022,04,15,11,04,7.60
2022,04,15,11,05,7.50
2022,04,15,11,06,7.50
2022,04,15,11,07,7.40
2022,04,15,11,08,7.40
2022,04,15,11,09,7.30
2022,04,15,11,10,7.30
2022,04,15,11,11,7.30
2022,04,15,11,12,7.30
2022,04,15,11,13,7.30
2022,04,15,11,14,7.40
2022,04,15,11,15,7.40
2022,04,15,11,16,7.40
2022,04,15,11,17,7.50
2022,04,15,11,18,7.50
2022,04,15,11,19,7.50
2022,04,15,11,20,7.50
2022,04,15,11,21,7.40
2022,04,15,11,22,7.40
2022,04,15,11,23,7.40
2022,04,15,11,24,7.30
2022,04,15,11,25,7.30
2022,04,15,11,26,7.30
2022,04,15,11,27,7.30
2022,04,15,11,28,7.30
2022,04,15,11,29,7.40
2022,04,15,11,30,7.30
2022,04,15,11,31,7.30
2022,04,15,11,32,7.20
2022,04,15,11,33,7.20
2022,04,15,11,34,7.20
2022,04,15,11,35,7.20
2022,04,15,11,36,7.30
2022,04,15,11,37,7.40
2022,04,15,11,38,7.40
2022,04,15,11,39,7.50
2022,04,15,11,40,7.60
2022,04,15,11,41,7.70
2022,04,15,11,42,7.70
2022,04,15,11,43,7.70
2022,04,15,11,44,7.70
2022,04,15,11,45,7.70
2022,04,15,11,46,7.70
2022,04,15,11,47,7.60
2022,04,15,11,48,7.60
2022,04,15,11,49,7.50
2022,04,15,11,50,7.50
2022,04,15,11,51,7.50
2022,04,15,11,52,7.50
2022,04,15,11,53,7.50
2022,04,15,11,54,7.50
2022,04,15,11,55,7.50
2022,04,15,11,56,7.60
2022,04,15,11,57,7.60
2022,04,15,11,58,7.60
2022,04,15,11,59,7.70
2022,04,15,12,00,7.70
2022,04,15,12,01,7.70
2022,04,15,12,02,7.70
2022,04,15,12,03,7.70
2022,04,15,12,04,7.80
2022,04,15,12,05,7.80
2022,04,15,12,06,7.80
2022,04,15,12,07,7.90
2022,04,15,12,08,7.90
2022,04,15,12,09,7.90
2022,04,15,12,10,7.90
2022,04,15,12,11,7.80
2022,04,15,12,12,7.80
2022,04,15,12,13,7.70
2022,04,15,12,14,7.60
2022,04,15,12,15,7.60
2022,04,15,12,16,7.70
2022,04,15,12,17,7.70
2022,04,15,12,18,7.70
2022,04,15,12,19,7.80
2022,04,15,12,20,7.80
2022,04,15,12,21,7.80
2022,04,15,12,22,7.90
2022,04,15,12,23,7.90
2022,04,15,12,24,8.00
2022,04,15,12,25,8.00
2022,04,15,12,26,8.00
2022,04,15,12,27,8.10
2022,04,15,12,28,8.10
2022,04,15,12,29,8.10
2022,04,15,12,30,8.10
2022,04,15,12,31,8.10
2022,04,15,12,32,8.00
2022,04,15,12,33,8.00
2022,04,15,12,34,8.00
2022,04,15,12,35,8.00
2022,04,15,12,36,8.00
2022,04,15,12,37,7.90
2022,04,15,12,38,7.90
2022,04,15,12,39,7.90
2022,04,15,12,40,7.90
2022,04,15,12,41,8.00
2022,04,15,12,42,8.00
2022,04,15,12,43,8.00
2022,04,15,12,44,8.10
2022,04,15,12,45,8.10
2022,04,15,12,46,8.20
2022,04,15,12,47,8.10
2022,04,15,12,48,8.00
2022,04,15,12,49,7.90
2022,04,15,12,50,7.90
2022,04,15,12,51,7.80
2022,04,15,12,52,7.70
2022,04,15,12,53,7.70
2022,04,15,12,54,7.60
2022,04,15,12,55,7.60
2022,04,15,12,56,7.60
2022,04,15,12,57,7.60
2022,04,15,12,58,7.60
2022,04,15,12,59,7.60
2022,04,15,13,00,7.60
2022,04,15,13,01,7.70
2022,04,15,13,02,7.70
2022,04,15,13,03,7.70
2022,04,15,13,04,7.80
2022,04,15,13,05,7.90
2022,04,15,13,06,7.90
2022,04,15,13,07,8.10
2022,04,15,13,08,8.20
2022,04,15,13,09,8.30
2022,04,15,13,10,8.40
2022,04,15,13,11,8.50
2022,04,15,13,12,8.50
2022,04,15,13,13,8.50
2022,04,15,13,14,8.60
2022,04,15,13,15,8.60
2022,04,15,13,16,8.60
2022,04,15,13,17,8.50
2022,04,15,13,18,8.40
2022,04,15,13,19,8.40
2022,04,15,13,20,8.40
2022,04,15,13,21,8.50
2022,04,15,13,22,8.50
2022,04,15,13,23,8.50
2022,04,15,13,24,8.40
2022,04,15,13,25,8.40
2022,04,15,13,26,8.50
2022,04,15,13,27,8.50
2022,04,15,13,28,8.50
2022,04,15,13,29,8.50
2022,04,15,13,30,8.50
2022,04,15,13,31,8.50
2022,04,15,13,32,8.40
2022,04,15,13,33,8.40
2022,04,15,13,34,8.30
2022,04,15,13,35,8.40
2022,04,15,13,36,8.40
2022,04,15,13,37,8.40
2022,04,15,13,38,8.50
2022,04,15,13,39,8.40
2022,04,15,13,40,8.40
2022,04,15,13,41,8.40
2022,04,15,13,42,8.40
2022,04,15,13,43,8.40
2022,04,15,13,44,8.40
2022,04,15,13,45,8.40
2022,04,15,13,46,8.40
2022,04,15,13,47,8.30
2022,04,15,13,48,8.30
2022,04,15,13,49,8.40
2022,04,15,13,50,8.40
2022,04,15,13,51,8.40
2022,04,15,13,52,8.50
2022,04,15,13,53,8.40
2022,04,15,13,54,8.40
2022,04,15,13,55,8.40
2022,04,15,13,56,8.50
2022,04,15,13,57,8.50
2022,04,15,13,58,8.50
2022,04,15,13,59,8.60
2022,04,15,14,00,8.70
2022,04,15,14,01,8.70
2022,04,15,14,02,8.70
2022,04,15,14,03,8.70
2022,04,15,14,04,8.70
2022,04,15,14,05,8.70
2022,04,15,14,06,8.70
2022,04,15,14,07,8.80
2022,04,15,14,08,8.80
2022,04,15,14,09,8.80
2022,04,15,14,10,8.80
2022,04,15,14,11,8.80
2022,04,15,14,12,8.80
2022,04,15,14,13,8.80
2022,04,15,14,14,8.80
2022,04,15,14,15,8.80
2022,04,15,14,16,8.90
2022,04,15,14,17,9.00
2022,04,15,14,18,9.10
2022,04,15,14,19,9.10
2022,04,15,14,20,9.20
2022,04,15,14,21,9.20
2022,04,15,14,22,9.20
2022,04,15,14,23,9.20
2022,04,15,14,24,9.30
2022,04,15,14,25,9.30
2022,04,15,14,26,9.40
2022,04,15,14,27,9.50
2022,04,15,14,28,9.60
2022,04,15,14,29,9.60
2022,04,15,14,30,9.60
2022,04,15,14,31,9.60
2022,04,15,14,32,9.60
2022,04,15,14,33,9.70
2022,04,15,14,34,9.80
2022,04,15,14,35,9.80
2022,04,15,14,36,9.80
2022,04,15,14,37,9.80
2022,04,15,14,38,9.80
2022,04,15,14,39,9.80
2022,04,15,14,40,9.80
2022,04,15,14,41,9.80
2022,04,15,14,42,9.80
2022,04,15,14,43,9.80
2022,04,15,14,44,9.80
2022,04,15,14,45,9.80
2022,04,15,14,46,9.70
2022,04,15,14,47,9.70
2022,04,15,14,48,9.70
2022,04,15,14,49,9.70
2022,04,15,14,50,9.70
2022,04,15,14,51,9.70
2022,04,15,14,52,9.70
2022,04,15,14,53,9.80
2022,04,15,14,54,9.80
2022,04,15,14,55,9.80
2022,04,15,14,56,9.70
2022,04,15,14,57,9.70
2022,04,15,14,58,9.70
2022,04,15,14,59,9.70
2022,04,15,15,00,9.60
2022,04,15,15,01,9.50
2022,04,15,15,02,9.50
2022,04,15,15,03,9.40
2022,04,15,15,04,9.40
2022,04,15,15,05,9.50
2022,04,15,15,06,9.40
2022,04,15,15,07,9.40
2022,04,15,15,08,9.40
2022,04,15,15,09,9.30
2022,04,15,15,10,9.30
2022,04,15,15,11,9.30
2022,04,15,15,12,9.40
2022,04,15,15,13,9.40
2022,04,15,15,14,9.50
2022,04,15,15,15,9.60
2022,04,15,15,16,9.70
2022,04,15,15,17,9.70
2022,04,15,15,18,9.70
2022,04,15,15,19,9.70
2022,04,15,15,20,9.80
2022,04,15,15,21,9.80
2022,04,15,15,22,9.80
2022,04,15,15,23,9.80
2022,04,15,15,24,9.80
2022,04,15,15,25,9.80
2022,04,15,15,26,9.70
2022,04,15,15,27,9.70
2022,04,15,15,28,9.70
2022,04,15,15,29,9.70
2022,04,15,15,30,9.70
2022,04,15,15,31,9.70
2022,04,15,15,32,9.80
2022,04,15,15,33,9.80
2022,04,15,15,34,9.80
2022,04,15,15,35,9.80
2022,04,15,15,36,9.80
2022,04,15,15,37,9.80
2022,04,15,15,38,9.80
2022,04,15,15,39,9.80
2022,04,15,15,40,9.80
2022,04,15,15,41,9.80
2022,04,15,15,42,9.80
2022,04,15,15,43,9.80
2022,04,15,15,44,9.90
2022,04,15,15,45,9.90
2022,04,15,15,46,9.90
2022,04,15,15,47,9.80
2022,04,15,15,48,9.80
2022,04,15,15,49,9.80
2022,04,15,15,50,9.80
2022,04,15,15,51,9.80
2022,04,15,15,52,9.80
2022,04,15,15,53,9.70
2022,04,15,15,54,9.70
2022,04,15,15,55,9.70
2022,04,15,15,56,9.60
2022,04,15,15,57,9.60
2022,04,15,15,58,9.60
2022,04,15,15,59,9.60
2022,04,15,16,00,9.60
2022,04,15,16,01,9.60
2022,04,15,16,02,9.70
2022,04,15,16,03,9.70
2022,04,15,16,04,9.70
2022,04,15,16,05,9.70
2022,04,15,16,06,9.70
2022,04,15,16,07,9.70
2022,04,15,16,08,9.70
2022,04,15,16,09,9.60
2022,04,15,16,10,9.60
2022,04,15,16,11,9.60
2022,04,15,16,12,9.50
2022,04,15,16,13,9.50
2022,04,15,16,14,9.40
2022,04,15,16,15,9.30
2022,04,15,16,16,9.30
2022,04,15,16,17,9.30
2022,04,15,16,18,9.20
2022,04,15,16,19,9.20
2022,04,15,16,20,9.20
2022,04,15,16,21,9.20
2022,04,15,16,22,9.20
2022,04,15,16,23,9.20
2022,04,15,16,24,9.20
2022,04,15,16,25,9.20
2022,04,15,16,26,9.20
2022,04,15,16,27,9.30
2022,04,15,16,28,9.40
2022,04,15,16,29,9.50
2022,04,15,16,30,9.50
2022,04,15,16,31,9.60
2022,04,15,16,32,9.70
2022,04,15,16,33,9.70
2022,04,15,16,34,9.80
2022,04,15,16,35,9.80
2022,04,15,16,36,9.80
2022,04,15,16,37,9.70
2022,04,15,16,38,9.80
2022,04,15,16,39,9.80
2022,04,15,16,40,9.70
2022,04,15,16,41,9.70
2022,04,15,16,42,9.70
2022,04,15,16,43,9.60
2022,04,15,16,44,9.60
2022,04,15,16,45,9.60
2022,04,15,16,46,9.60
2022,04,15,16,47,9.70
2022,04,15,16,48,9.60
2022,04,15,16,49,9.60
2022,04,15,16,50,9.60
2022,04,15,16,51,9.60
2022,04,15,16,52,9.60
2022,04,15,16,53,9.60
2022,04,15,16,54,9.60
2022,04,15,16,55,9.70
2022,04,15,16,56,9.70
2022,04,15,16,57,9.70
2022,04,15,16,58,9.80
2022,04,15,16,59,9.80
2022,04,15,17,00,9.90
2022,04,15,17,01,10.00
2022,04,15,17,02,10.00
2022,04,15,17,03,10.00
2022,04,15,17,04,10.10
2022,04,15,17,05,10.10
2022,04,15,17,06,10.10
2022,04,15,17,07,10.10
2022,04,15,17,08,10.10
2022,04,15,17,09,10.10
2022,04,15,17,10,10.10
2022,04,15,17,11,10.10
2022,04,15,17,12,10.00
2022,04,15,17,13,10.00
2022,04,15,17,14,10.00
2022,04,15,17,15,9.90
2022,04,15,17,16,9.90
2022,04,15,17,17,9.80
2022,04,15,17,18,9.80
2022,04,15,17,19,9.80
2022,04,15,17,20,9.70
2022,04,15,17,21,9.70
2022,04,15,17,22,9.70
2022,04,15,17,23,9.70
2022,04,15,17,24,9.70
2022,04,15,17,25,9.70
2022,04,15,17,26,9.70
2022,04,15,17,27,9.70
2022,04,15,17,28,9.60
2022,04,15,17,29,9.60
2022,04,15,17,30,9.60
2022,04,15,17,31,9.50
2022,04,15,17,32,9.50
2022,04,15,17,33,9.40
2022,04,15,17,34,9.40
2022,04,15,17,35,9.40
2022,04,15,17,36,9.40
2022,04,15,17,37,9.40
2022,04,15,17,38,9.40
2022,04,15,17,39,9.40
2022,04,15,17,40,9.30
2022,04,15,17,41,9.30
2022,04,15,17,42,9.30
2022,04,15,17,43,9.30
2022,04,15,17,44,9.30
2022,04,15,17,45,9.30
2022,04,15,17,46,9.30
2022,04,15,17,47,9.20
2022,04,15,17,48,9.20
2022,04,15,17,49,9.10
2022,04,15,17,50,9.10
2022,04,15,17,51,9.00
2022,04,15,17,52,9.00
2022,04,15,17,53,8.90
2022,04,15,17,54,8.90
2022,04,15,17,55,8.90
2022,04,15,17,56,8.80
2022,04,15,17,57,8.80
2022,04,15,17,58,8.80
2022,04,15,17,59,8.80
2022,04,15,18,00,8.80
2022,04,15,18,01,8.80
2022,04,15,18,02,8.80
2022,04,15,18,03,8.80
2022,04,15,18,04,8.80
2022,04,15,18,05,8.80
2022,04,15,18,06,8.80